timestamp,wind_dir_avg,wind_spd_max_dir,wind_spd_avg,wind_spd_gust,battery_voltage,lat,long
2017-10-26 00:00:00+00:00,64.0,48.0,0.21,0.45,12.7,47.59359,-54.27349
2017-10-26 00:10:00+00:00,24.0,37.0,0.61,0.85,12.6,47.59359,-54.27349
2017-10-26 00:20:00+00:00,70.0,70.0,1.76,1.85,12.7,47.59359,-54.27349
2017-10-26 00:30:00+00:00,62.0,57.0,1.71,1.82,12.7,47.59359,-54.27349
2017-10-26 00:40:00+00:00,55.0,52.0,2.82,3.06,12.7,47.59359,-54.27349
2017-10-26 00:50:00+00:00,61.0,64.0,2.31,2.5,12.7,47.59359,-54.27349
2017-10-26 01:00:00+00:00,70.0,70.0,2.37,2.53,12.7,47.59359,-54.27349
2017-10-26 01:10:00+00:00,63.0,61.0,2.55,2.75,12.6,47.59359,-54.27349
2017-10-26 01:20:00+00:00,27.0,28.0,2.12,2.39,12.7,47.59359,-54.27349
2017-10-26 01:30:00+00:00,40.0,43.0,2.16,2.41,12.7,47.59359,-54.27349
2017-10-26 01:40:00+00:00,17.0,21.0,2.2,2.39,12.7,47.59359,-54.27349
2017-10-26 01:50:00+00:00,7.0,8.0,2.41,2.7,12.7,47.59359,-54.27349
2017-10-26 02:00:00+00:00,18.0,20.0,2.7,2.89,12.6,47.59359,-54.27349
2017-10-26 02:10:00+00:00,47.0,47.0,2.15,2.27,12.6,47.59359,-54.27349
2017-10-26 02:20:00+00:00,65.0,68.0,1.77,1.96,12.7,47.59359,-54.27349
2017-10-26 02:30:00+00:00,65.0,74.0,1.64,1.97,12.7,47.59359,-54.27349
2017-10-26 02:40:00+00:00,50.0,49.0,1.5,1.71,12.7,47.59359,-54.27349
2017-10-26 02:50:00+00:00,36.0,34.0,0.93,1.05,12.7,47.59359,-54.27349
2017-10-26 03:00:00+00:00,46.0,51.0,1.2,1.34,12.6,47.59359,-54.27349
2017-10-26 03:10:00+00:00,56.0,59.0,1.19,1.3,12.6,47.59359,-54.27349
2017-10-26 03:20:00+00:00,79.0,80.0,0.62,0.72,12.7,47.59359,-54.27349
2017-10-26 03:30:00+00:00,85.0,86.0,0.75,0.87,12.7,47.59359,-54.27349
2017-10-26 03:40:00+00:00,84.0,86.0,0.53,0.65,12.7,47.59359,-54.27349
2017-10-26 03:50:00+00:00,338.0,338.0,0.24,0.34,12.7,47.59359,-54.27349
2017-10-26 04:00:00+00:00,327.0,329.0,0.92,0.98,12.6,47.59359,-54.27349
2017-10-26 04:10:00+00:00,340.0,341.0,0.88,0.98,12.6,47.59359,-54.27349
2017-10-26 04:20:00+00:00,35.0,32.0,0.38,0.43,12.6,47.59359,-54.27349
2017-10-26 04:30:00+00:00,0.0,8.0,0.09,0.13,12.6,47.59359,-54.27349
2017-10-26 04:40:00+00:00,131.0,139.0,0.22,0.32,12.7,47.59359,-54.27349
2017-10-26 04:50:00+00:00,198.0,199.0,0.54,0.6,12.7,47.59359,-54.27349
2017-10-26 05:00:00+00:00,193.0,194.0,0.48,0.61,12.6,47.59359,-54.27349
2017-10-26 05:10:00+00:00,220.0,218.0,0.26,0.32,12.6,47.59359,-54.27349
2017-10-26 05:20:00+00:00,192.0,192.0,0.57,0.66,12.6,47.59359,-54.27349
2017-10-26 05:30:00+00:00,302.0,304.0,0.74,0.86,12.6,47.59359,-54.27349
2017-10-26 05:40:00+00:00,329.0,332.0,0.96,1.08,12.6,47.59359,-54.27349
2017-10-26 05:50:00+00:00,35.0,37.0,0.2,0.31,12.7,47.59359,-54.27349
2017-10-26 06:00:00+00:00,331.0,331.0,0.25,0.33,12.6,47.59359,-54.27349
2017-10-26 06:10:00+00:00,349.0,337.0,0.53,0.63,12.6,47.59359,-54.27349
2017-10-26 06:20:00+00:00,8.0,14.0,0.45,0.52,12.6,47.59359,-54.27349
2017-10-26 06:30:00+00:00,3.0,5.0,0.67,0.78,12.6,47.59359,-54.27349
2017-10-26 06:40:00+00:00,57.0,56.0,1.24,1.36,12.6,47.59359,-54.27349
2017-10-26 06:50:00+00:00,99.0,97.0,0.79,0.92,12.6,47.59359,-54.27349
2017-10-26 07:00:00+00:00,135.0,136.0,0.35,0.63,12.6,47.59359,-54.27349
2017-10-26 07:10:00+00:00,170.0,167.0,0.37,0.54,12.6,47.59359,-54.27349
2017-10-26 07:20:00+00:00,149.0,151.0,0.86,1.03,12.6,47.59359,-54.27349
2017-10-26 07:30:00+00:00,156.0,157.0,0.6,0.65,12.6,47.59359,-54.27349
2017-10-26 07:40:00+00:00,71.0,85.0,0.18,0.29,12.6,47.59359,-54.27349
2017-10-26 07:50:00+00:00,109.0,109.0,0.45,0.51,12.6,47.59359,-54.27349
2017-10-26 08:00:00+00:00,87.0,88.0,0.73,0.8,12.6,47.59359,-54.27349
2017-10-26 08:10:00+00:00,28.0,30.0,0.59,0.77,12.6,47.59359,-54.27349
2017-10-26 08:20:00+00:00,38.0,44.0,0.83,0.97,12.6,47.59359,-54.27349
2017-10-26 08:30:00+00:00,332.0,318.0,0.43,0.59,12.6,47.59359,-54.27349
2017-10-26 08:40:00+00:00,335.0,337.0,0.94,1.16,12.6,47.59359,-54.27349
2017-10-26 08:50:00+00:00,356.0,355.0,1.7,1.91,12.6,47.59359,-54.27349
2017-10-26 09:00:00+00:00,359.0,359.0,2.19,2.41,12.6,47.59359,-54.27349
2017-10-26 09:10:00+00:00,10.0,12.0,2.32,2.48,12.5,47.59359,-54.27349
2017-10-26 09:20:00+00:00,356.0,354.0,2.2,2.41,12.6,47.59359,-54.27349
2017-10-26 09:30:00+00:00,7.0,4.0,1.79,1.97,12.6,47.59359,-54.27349
2017-10-26 09:40:00+00:00,31.0,25.0,0.85,0.97,12.6,47.59359,-54.27349
2017-10-26 09:50:00+00:00,39.0,41.0,1.0,1.12,12.6,47.59359,-54.27349
2017-10-26 10:00:00+00:00,31.0,32.0,1.47,1.69,12.6,47.59359,-54.27349
2017-10-26 10:10:00+00:00,31.0,28.0,1.36,1.73,12.5,47.59359,-54.27349
2017-10-26 10:20:00+00:00,55.0,53.0,1.57,1.75,12.6,47.59359,-54.27349
2017-10-26 10:30:00+00:00,39.0,41.0,1.12,1.33,12.6,47.59359,-54.27349
2017-10-26 10:40:00+00:00,26.0,33.0,0.72,0.84,12.6,47.59359,-54.27349
2017-10-26 10:50:00+00:00,31.0,31.0,1.23,1.56,12.6,47.59359,-54.27349
2017-10-26 11:00:00+00:00,25.0,21.0,1.39,1.59,12.6,47.59359,-54.27349
2017-10-26 11:10:00+00:00,26.0,22.0,1.08,2.1,12.6,47.59359,-54.27349
2017-10-26 11:20:00+00:00,22.0,16.0,1.18,1.48,12.6,47.59359,-54.27349
2017-10-26 11:30:00+00:00,37.0,37.0,1.22,1.49,12.7,47.59359,-54.27349
2017-10-26 11:40:00+00:00,22.0,21.0,0.63,0.95,12.8,47.59359,-54.27349
2017-10-26 11:50:00+00:00,344.0,354.0,0.61,0.81,12.9,47.59359,-54.27349
2017-10-26 12:00:00+00:00,3.0,347.0,0.58,0.88,12.9,47.59359,-54.27349
2017-10-26 12:10:00+00:00,68.0,58.0,0.67,0.98,12.9,47.59359,-54.27349
2017-10-26 12:20:00+00:00,191.0,210.0,0.24,0.42,13.1,47.59359,-54.27349
2017-10-26 12:30:00+00:00,38.0,40.0,0.91,1.15,13.2,47.59359,-54.27349
2017-10-26 12:40:00+00:00,60.0,51.0,0.96,1.28,13.3,47.59359,-54.27349
2017-10-26 12:50:00+00:00,54.0,63.0,1.29,1.6,13.4,47.59359,-54.27349
2017-10-26 13:00:00+00:00,38.0,43.0,1.28,1.58,13.4,47.59359,-54.27349
2017-10-26 13:10:00+00:00,48.0,44.0,1.14,1.35,13.4,47.59359,-54.27349
2017-10-26 13:20:00+00:00,46.0,44.0,1.23,1.44,13.6,47.59359,-54.27349
2017-10-26 13:30:00+00:00,17.0,16.0,1.04,1.23,13.7,47.59359,-54.27349
2017-10-26 13:40:00+00:00,58.0,53.0,0.49,0.64,13.9,47.59359,-54.27349
2017-10-26 13:50:00+00:00,72.0,108.0,0.16,0.33,14.3,47.59359,-54.27349
2017-10-26 14:00:00+00:00,143.0,140.0,1.2,1.41,14.0,47.59359,-54.27349
2017-10-26 14:10:00+00:00,166.0,173.0,1.32,1.51,14.0,47.59359,-54.27349
2017-10-26 14:20:00+00:00,138.0,138.0,0.55,0.75,14.0,47.59359,-54.27349
2017-10-26 14:30:00+00:00,130.0,120.0,0.49,0.78,13.7,47.59359,-54.27349
2017-10-26 14:40:00+00:00,10.0,346.0,0.42,0.76,14.0,47.59359,-54.27349
2017-10-26 14:50:00+00:00,204.0,188.0,0.52,0.76,13.8,47.59359,-54.27349
2017-10-26 15:00:00+00:00,174.0,177.0,1.06,1.33,13.8,47.59359,-54.27349
2017-10-26 15:10:00+00:00,169.0,169.0,1.93,2.23,14.0,47.59359,-54.27349
2017-10-26 15:20:00+00:00,180.0,180.0,1.63,1.82,13.8,47.59359,-54.27349
2017-10-26 15:30:00+00:00,177.0,176.0,1.69,1.89,14.2,47.59359,-54.27349
2017-10-26 15:40:00+00:00,172.0,173.0,1.85,2.03,13.7,47.59359,-54.27349
2017-10-26 15:50:00+00:00,206.0,200.0,0.92,1.2,14.1,47.59359,-54.27349
2017-10-26 16:00:00+00:00,189.0,191.0,0.98,1.1,14.1,47.59359,-54.27349
2017-10-26 16:10:00+00:00,179.0,180.0,1.03,1.16,14.0,47.59359,-54.27349
2017-10-26 16:20:00+00:00,172.0,172.0,1.02,1.16,14.3,47.59359,-54.27349
2017-10-26 16:30:00+00:00,200.0,201.0,0.95,1.06,14.3,47.59359,-54.27349
2017-10-26 16:40:00+00:00,202.0,199.0,0.74,0.87,13.8,47.59359,-54.27349
2017-10-26 16:50:00+00:00,201.0,200.0,0.68,0.8,14.0,47.59359,-54.27349
2017-10-26 17:00:00+00:00,224.0,231.0,0.82,0.99,13.6,47.59359,-54.27349
2017-10-26 17:10:00+00:00,220.0,228.0,0.61,0.78,13.7,47.59359,-54.27349
2017-10-26 17:20:00+00:00,182.0,183.0,0.79,0.91,13.7,47.59359,-54.27349
2017-10-26 17:30:00+00:00,200.0,201.0,0.63,0.76,13.7,47.59359,-54.27349
2017-10-26 17:40:00+00:00,181.0,180.0,0.85,0.89,14.3,47.59359,-54.27349
2017-10-26 17:50:00+00:00,168.0,168.0,0.98,1.1,13.7,47.59359,-54.27349
2017-10-26 18:00:00+00:00,178.0,178.0,1.04,1.25,13.8,47.59359,-54.27349
2017-10-26 18:10:00+00:00,268.0,269.0,0.92,1.06,13.8,47.59359,-54.27349
2017-10-26 18:20:00+00:00,232.0,233.0,0.59,0.68,13.9,47.59359,-54.27349
2017-10-26 18:30:00+00:00,152.0,154.0,0.55,0.66,13.7,47.59359,-54.27349
2017-10-26 18:40:00+00:00,167.0,170.0,0.49,0.63,13.9,47.59359,-54.27349
2017-10-26 18:50:00+00:00,236.0,234.0,1.04,1.22,13.7,47.59359,-54.27349
2017-10-26 19:00:00+00:00,264.0,263.0,0.73,0.84,13.8,47.59359,-54.27349
2017-10-26 19:10:00+00:00,287.0,285.0,1.58,1.75,13.8,47.59359,-54.27349
2017-10-26 19:20:00+00:00,276.0,277.0,2.08,2.38,13.9,47.59359,-54.27349
2017-10-26 19:30:00+00:00,269.0,271.0,2.12,2.34,13.8,47.59359,-54.27349
2017-10-26 19:40:00+00:00,286.0,288.0,1.67,1.83,13.8,47.59359,-54.27349
2017-10-26 19:50:00+00:00,284.0,284.0,1.97,2.38,13.8,47.59359,-54.27349
2017-10-26 20:00:00+00:00,284.0,281.0,1.61,1.82,13.6,47.59359,-54.27349
2017-10-26 20:10:00+00:00,279.0,284.0,1.01,1.24,13.4,47.59359,-54.27349
2017-10-26 20:20:00+00:00,265.0,268.0,1.26,1.53,13.4,47.59359,-54.27349
2017-10-26 20:30:00+00:00,263.0,268.0,1.22,1.42,13.3,47.59359,-54.27349
2017-10-26 20:40:00+00:00,240.0,254.0,1.23,1.54,13.2,47.59359,-54.27349
2017-10-26 20:50:00+00:00,193.0,201.0,1.33,1.54,13.2,47.59359,-54.27349
2017-10-26 21:00:00+00:00,226.0,232.0,1.09,1.36,13.0,47.59359,-54.27349
2017-10-26 21:10:00+00:00,234.0,233.0,1.34,1.47,12.9,47.59359,-54.27349
2017-10-26 21:20:00+00:00,230.0,232.0,1.07,1.19,12.9,47.59359,-54.27349
2017-10-26 21:30:00+00:00,204.0,202.0,0.75,0.9,12.9,47.59359,-54.27349
2017-10-26 21:40:00+00:00,214.0,217.0,1.15,1.29,12.9,47.59359,-54.27349
2017-10-26 21:50:00+00:00,243.0,239.0,1.13,1.35,12.9,47.59359,-54.27349
2017-10-26 22:00:00+00:00,212.0,214.0,1.18,1.43,12.8,47.59359,-54.27349
2017-10-26 22:10:00+00:00,212.0,217.0,1.0,1.28,12.7,47.59359,-54.27349
2017-10-26 22:20:00+00:00,230.0,234.0,1.47,1.76,12.8,47.59359,-54.27349
2017-10-26 22:30:00+00:00,247.0,251.0,1.2,1.43,12.8,47.59359,-54.27349
2017-10-26 22:40:00+00:00,216.0,215.0,1.25,1.59,12.8,47.59359,-54.27349
2017-10-26 22:50:00+00:00,213.0,214.0,1.18,1.6,12.8,47.59359,-54.27349
2017-10-26 23:00:00+00:00,220.0,220.0,1.94,2.31,12.7,47.59359,-54.27349
2017-10-26 23:10:00+00:00,212.0,218.0,1.86,2.32,12.6,47.59359,-54.27349
2017-10-26 23:20:00+00:00,209.0,214.0,2.24,2.65,12.7,47.59359,-54.27349
2017-10-26 23:30:00+00:00,222.0,237.0,2.33,3.0,12.7,47.59359,-54.27349
2017-10-26 23:40:00+00:00,218.0,219.0,1.99,2.17,12.8,47.59359,-54.27349
2017-10-26 23:50:00+00:00,223.0,227.0,2.44,2.91,12.8,47.59359,-54.27349
